Time,TemperatureF,DewpointF,PressureIn,WindDirection,WindDirectionDegrees,WindSpeedMPH,WindSpeedGustMPH,Humidity,HourlyPrecipIn,Conditions,Clouds,dailyrainin,SoftwareType,DateUTC
2013-05-10 00:01:00,59.0,55.8,29.91,SSW,210,0.0,0.0,89,0.00,,,0.00,LWC V2.11 B50,2013-05-10 04:01:00,
2013-05-10 00:06:00,58.7,54.8,29.91,SSW,210,0.0,0.0,87,0.00,,,0.00,LWC V2.11 B50,2013-05-10 04:06:00,
2013-05-10 00:11:00,58.4,54.5,29.91,SSW,210,0.0,0.0,87,0.00,,,0.00,LWC V2.11 B50,2013-05-10 04:11:00,
2013-05-10 00:16:00,58.0,54.5,29.91,SSW,210,0.0,0.0,88,0.00,,,0.00,LWC V2.11 B50,2013-05-10 04:16:00,
2013-05-10 00:21:00,57.6,54.1,29.91,SSW,210,0.0,0.0,88,0.00,,,0.00,LWC V2.11 B50,2013-05-10 04:21:00,
2013-05-10 00:26:00,57.2,54.0,29.91,SSW,210,0.0,0.0,89,0.00,,,0.00,LWC V2.11 B50,2013-05-10 04:26:00,
2013-05-10 00:31:00,56.9,53.7,29.91,SSW,210,0.0,0.0,89,0.00,,,0.00,LWC V2.11 B50,2013-05-10 04:31:00,
2013-05-10 00:36:00,56.7,53.8,29.91,SSW,210,0.0,0.0,90,0.00,,,0.00,LWC V2.11 B50,2013-05-10 04:36:00,
2013-05-10 00:41:00,56.5,53.6,29.91,SSW,210,0.0,0.0,90,0.00,,,0.00,LWC V2.11 B50,2013-05-10 04:41:00,
2013-05-10 00:46:00,56.3,53.7,29.91,SSW,210,0.0,0.0,91,0.00,,,0.00,LWC V2.11 B50,2013-05-10 04:46:00,
2013-05-10 00:51:00,56.2,53.6,29.91,SSW,210,0.0,0.0,91,0.00,,,0.00,LWC V2.11 B50,2013-05-10 04:51:00,
2013-05-10 00:56:00,55.9,53.3,29.91,SSW,210,0.0,0.0,91,0.00,,,0.00,LWC V2.11 B50,2013-05-10 04:56:00,
2013-05-10 01:01:00,55.7,53.1,29.91,SSW,210,0.0,0.0,91,0.00,,,0.00,LWC V2.11 B50,2013-05-10 05:01:00,
2013-05-10 01:06:00,55.5,52.9,29.91,SSW,210,0.0,0.0,91,0.00,,,0.00,LWC V2.11 B50,2013-05-10 05:06:00,
2013-05-10 01:11:00,55.3,53.0,29.91,SSW,210,0.0,0.0,92,0.00,,,0.00,LWC V2.11 B50,2013-05-10 05:11:00,
2013-05-10 01:16:00,55.2,52.9,29.91,SSW,210,0.0,0.0,92,0.00,,,0.00,LWC V2.11 B50,2013-05-10 05:16:00,
2013-05-10 01:21:00,55.0,52.7,29.91,SSW,210,0.0,0.0,92,0.00,,,0.00,LWC V2.11 B50,2013-05-10 05:21:00,
2013-05-10 01:26:00,54.9,52.6,29.91,SSW,210,0.0,0.0,92,0.00,,,0.00,LWC V2.11 B50,2013-05-10 05:26:00,
2013-05-10 01:31:00,54.6,52.3,29.91,SSW,210,0.0,0.0,92,0.00,,,0.00,LWC V2.11 B50,2013-05-10 05:31:00,
2013-05-10 01:36:00,54.5,52.2,29.91,SSW,210,0.0,0.0,92,0.00,,,0.00,LWC V2.11 B50,2013-05-10 05:36:00,
2013-05-10 01:41:00,54.3,52.0,29.91,SSW,210,0.0,0.0,92,0.00,,,0.00,LWC V2.11 B50,2013-05-10 05:41:00,
2013-05-10 01:46:00,54.1,52.1,29.91,SSW,210,0.0,0.0,93,0.00,,,0.00,LWC V2.11 B50,2013-05-10 05:46:00,
2013-05-10 01:51:00,54.2,52.2,29.91,SSW,210,0.0,0.0,93,0.00,,,0.00,LWC V2.11 B50,2013-05-10 05:51:00,
2013-05-10 01:56:00,54.2,52.2,29.91,SSW,210,0.0,0.0,93,0.00,,,0.00,LWC V2.11 B50,2013-05-10 05:56:00,
2013-05-10 02:01:00,54.0,52.0,29.91,SSW,210,0.0,0.0,93,0.00,,,0.00,LWC V2.11 B50,2013-05-10 06:01:00,
2013-05-10 02:06:00,53.9,51.9,29.91,SSW,210,0.0,0.0,93,0.00,,,0.00,LWC V2.11 B50,2013-05-10 06:06:00,
2013-05-10 02:11:00,53.9,52.2,29.91,SSW,210,0.0,0.0,94,0.00,,,0.00,LWC V2.11 B50,2013-05-10 06:11:00,
2013-05-10 02:16:00,54.0,52.3,29.91,SSW,210,0.0,0.0,94,0.00,,,0.00,LWC V2.11 B50,2013-05-10 06:16:00,
2013-05-10 02:21:00,54.0,52.3,29.91,SSW,210,0.0,0.0,94,0.00,,,0.00,LWC V2.11 B50,2013-05-10 06:21:00,
2013-05-10 02:26:00,54.0,52.3,29.91,SSW,210,0.0,0.0,94,0.00,,,0.00,LWC V2.11 B50,2013-05-10 06:26:00,
2013-05-10 02:31:00,53.9,52.2,29.91,SSW,210,0.0,0.0,94,0.00,,,0.00,LWC V2.11 B50,2013-05-10 06:31:00,
2013-05-10 02:36:00,53.8,52.1,29.91,SSW,210,0.0,0.0,94,0.00,,,0.00,LWC V2.11 B50,2013-05-10 06:36:00,
2013-05-10 02:40:00,53.7,52.0,29.91,SSW,210,0.0,0.0,94,0.00,,,0.00,LWC V2.11 B50,2013-05-10 06:40:00,
2013-05-10 02:45:00,53.6,51.9,29.91,SSW,210,0.0,0.0,94,0.00,,,0.00,LWC V2.11 B50,2013-05-10 06:45:00,
2013-05-10 02:50:00,53.5,51.8,29.91,SSW,210,0.0,0.0,94,0.00,,,0.00,LWC V2.11 B50,2013-05-10 06:50:00,
2013-05-10 02:55:00,53.6,51.9,29.91,SSW,210,0.0,0.0,94,0.00,,,0.00,LWC V2.11 B50,2013-05-10 06:55:00,
2013-05-10 03:00:00,53.5,51.8,29.91,SSW,210,0.0,0.0,94,0.00,,,0.00,LWC V2.11 B50,2013-05-10 07:00:00,
2013-05-10 03:05:00,53.4,51.7,29.91,SSW,210,0.0,0.0,94,0.00,,,0.00,LWC V2.11 B50,2013-05-10 07:05:00,
2013-05-10 03:10:00,53.4,51.7,29.92,SSW,210,0.0,0.0,94,0.00,,,0.00,LWC V2.11 B50,2013-05-10 07:10:00,
2013-05-10 03:15:00,53.3,51.6,29.92,SSW,210,0.0,0.0,94,0.00,,,0.00,LWC V2.11 B50,2013-05-10 07:15:00,
2013-05-10 03:20:00,53.3,51.6,29.92,SSW,210,0.0,0.0,94,0.00,,,0.00,LWC V2.11 B50,2013-05-10 07:20:00,
2013-05-10 03:25:00,53.4,52.0,29.92,SSW,210,0.0,0.0,95,0.00,,,0.00,LWC V2.11 B50,2013-05-10 07:25:00,
2013-05-10 03:30:00,53.5,52.1,29.92,SSW,210,0.0,0.0,95,0.00,,,0.00,LWC V2.11 B50,2013-05-10 07:30:00,
2013-05-10 03:35:00,53.7,52.3,29.92,SSW,210,0.0,0.0,95,0.00,,,0.00,LWC V2.11 B50,2013-05-10 07:35:00,
2013-05-10 03:40:00,53.7,52.3,29.92,SSW,210,0.0,0.0,95,0.00,,,0.00,LWC V2.11 B50,2013-05-10 07:40:00,
2013-05-10 03:45:00,53.8,52.4,29.92,SSW,210,0.0,0.0,95,0.00,,,0.00,LWC V2.11 B50,2013-05-10 07:45:00,
2013-05-10 03:50:00,53.7,52.3,29.92,SSW,210,0.0,0.0,95,0.00,,,0.00,LWC V2.11 B50,2013-05-10 07:50:00,
2013-05-10 03:55:00,53.8,52.4,29.92,SSW,210,0.0,0.0,95,0.00,,,0.00,LWC V2.11 B50,2013-05-10 07:55:00,
2013-05-10 04:00:00,53.9,52.5,29.92,SSW,210,0.0,0.0,95,0.00,,,0.00,LWC V2.11 B50,2013-05-10 08:00:00,
2013-05-10 04:05:00,54.0,52.6,29.93,SSW,210,0.0,0.0,95,0.00,,,0.00,LWC V2.11 B50,2013-05-10 08:05:00,
2013-05-10 04:10:00,54.2,52.8,29.93,SSW,210,0.0,0.0,95,0.00,,,0.00,LWC V2.11 B50,2013-05-10 08:10:00,
2013-05-10 04:15:00,54.4,53.3,29.93,SSW,210,0.0,0.0,96,0.00,,,0.00,LWC V2.11 B50,2013-05-10 08:15:00,
2013-05-10 04:20:00,55.1,54.0,29.93,SSW,210,0.0,0.0,96,0.00,,,0.00,LWC V2.11 B50,2013-05-10 08:20:00,
2013-05-10 04:25:00,55.6,54.5,29.93,SSW,210,0.0,0.0,96,0.00,,,0.00,LWC V2.11 B50,2013-05-10 08:25:00,
2013-05-10 04:30:00,56.0,54.9,29.93,SSW,210,0.0,0.0,96,0.00,,,0.00,LWC V2.11 B50,2013-05-10 08:30:00,
2013-05-10 04:35:00,56.2,55.1,29.93,SSW,210,0.0,0.0,96,0.00,,,0.00,LWC V2.11 B50,2013-05-10 08:35:00,
2013-05-10 04:40:00,56.3,55.2,29.93,SW,225,0.0,0.0,96,0.00,,,0.00,LWC V2.11 B50,2013-05-10 08:40:00,
2013-05-10 04:45:00,56.4,55.3,29.93,SW,225,0.0,0.0,96,0.00,,,0.00,LWC V2.11 B50,2013-05-10 08:45:00,
2013-05-10 04:50:00,56.3,55.2,29.93,SW,225,0.0,0.0,96,0.00,,,0.00,LWC V2.11 B50,2013-05-10 08:50:00,
2013-05-10 04:55:00,56.4,55.3,29.93,SW,225,0.0,0.0,96,0.00,,,0.00,LWC V2.11 B50,2013-05-10 08:55:00,
2013-05-10 05:00:00,56.5,55.4,29.93,SW,229,0.0,0.0,96,0.00,,,0.00,LWC V2.11 B50,2013-05-10 09:00:00,
2013-05-10 05:05:00,56.4,55.0,29.93,SW,229,0.0,0.0,95,0.00,,,0.00,LWC V2.11 B50,2013-05-10 09:05:00,
2013-05-10 05:10:00,56.2,54.8,29.94,SW,229,0.0,0.0,95,0.00,,,0.00,LWC V2.11 B50,2013-05-10 09:10:00,
2013-05-10 05:15:00,56.1,54.7,29.94,SW,229,0.0,0.0,95,0.00,,,0.00,LWC V2.11 B50,2013-05-10 09:15:00,
2013-05-10 05:20:00,55.9,54.5,29.94,SW,229,0.0,0.0,95,0.00,,,0.00,LWC V2.11 B50,2013-05-10 09:20:00,
2013-05-10 05:25:00,55.8,54.4,29.93,SW,229,0.0,0.0,95,0.00,,,0.00,LWC V2.11 B50,2013-05-10 09:25:00,
2013-05-10 05:30:00,55.6,54.2,29.93,SW,229,0.0,0.0,95,0.00,,,0.00,LWC V2.11 B50,2013-05-10 09:30:00,
2013-05-10 05:35:00,55.4,54.0,29.93,SW,229,0.0,0.0,95,0.00,,,0.00,LWC V2.11 B50,2013-05-10 09:35:00,
2013-05-10 05:40:00,55.2,53.8,29.94,SW,229,0.0,0.0,95,0.00,,,0.00,LWC V2.11 B50,2013-05-10 09:40:00,
2013-05-10 05:45:00,55.1,53.7,29.94,SW,229,0.0,0.0,95,0.00,,,0.00,LWC V2.11 B50,2013-05-10 09:45:00,
2013-05-10 05:50:00,55.0,53.6,29.94,SW,229,0.0,0.0,95,0.00,,,0.00,LWC V2.11 B50,2013-05-10 09:50:00,
2013-05-10 05:55:00,54.8,53.4,29.94,SW,229,0.0,0.0,95,0.00,,,0.00,LWC V2.11 B50,2013-05-10 09:55:00,
2013-05-10 06:00:00,54.7,53.3,29.94,SW,229,0.0,0.0,95,0.00,,,0.00,LWC V2.11 B50,2013-05-10 10:00:00,
2013-05-10 06:05:00,54.5,53.1,29.94,SW,229,0.0,0.0,95,0.00,,,0.00,LWC V2.11 B50,2013-05-10 10:05:00,
2013-05-10 06:10:00,54.3,52.9,29.94,SW,229,0.0,0.0,95,0.00,,,0.00,LWC V2.11 B50,2013-05-10 10:10:00,
2013-05-10 06:15:00,54.1,52.7,29.94,SW,229,0.0,0.0,95,0.00,,,0.00,LWC V2.11 B50,2013-05-10 10:15:00,
2013-05-10 06:20:00,53.9,52.5,29.94,SW,229,0.0,0.0,95,0.00,,,0.00,LWC V2.11 B50,2013-05-10 10:20:00,
2013-05-10 06:25:00,53.9,52.5,29.94,SW,229,0.0,0.0,95,0.00,,,0.00,LWC V2.11 B50,2013-05-10 10:25:00,
2013-05-10 06:30:00,53.9,52.5,29.94,SW,229,0.0,0.0,95,0.00,,,0.00,LWC V2.11 B50,2013-05-10 10:30:00,
2013-05-10 06:35:00,54.0,52.9,29.94,SW,229,0.0,0.0,96,0.00,,,0.00,LWC V2.11 B50,2013-05-10 10:35:00,
2013-05-10 06:40:00,54.5,53.4,29.95,SW,229,0.0,0.0,96,0.00,,,0.00,LWC V2.11 B50,2013-05-10 10:40:00,
2013-05-10 06:45:00,55.4,54.3,29.95,SW,229,0.0,0.0,96,0.00,,,0.00,LWC V2.11 B50,2013-05-10 10:45:00,
2013-05-10 06:50:00,56.0,55.2,29.95,SW,229,0.0,0.0,97,0.00,,,0.00,LWC V2.11 B50,2013-05-10 10:50:00,
2013-05-10 06:55:00,56.4,55.6,29.95,SW,229,0.0,0.0,97,0.00,,,0.00,LWC V2.11 B50,2013-05-10 10:55:00,
2013-05-10 07:00:00,56.7,55.9,29.95,SW,229,0.0,0.0,97,0.00,,,0.00,LWC V2.11 B50,2013-05-10 11:00:00,
2013-05-10 07:05:00,57.1,56.3,29.95,SW,229,0.0,0.0,97,0.00,,,0.00,LWC V2.11 B50,2013-05-10 11:05:00,
2013-05-10 07:10:00,57.8,57.0,29.95,SW,229,0.0,0.0,97,0.00,,,0.00,LWC V2.11 B50,2013-05-10 11:10:00,
2013-05-10 07:15:00,58.6,57.7,29.95,SW,229,0.0,0.0,97,0.00,,,0.00,LWC V2.11 B50,2013-05-10 11:15:00,
2013-05-10 07:20:00,59.5,58.6,29.95,SW,229,0.0,0.0,97,0.00,,,0.00,LWC V2.11 B50,2013-05-10 11:20:00,
2013-05-10 07:25:00,60.0,59.1,29.95,SW,229,0.0,0.0,97,0.00,,,0.00,LWC V2.11 B50,2013-05-10 11:25:00,
2013-05-10 07:30:00,60.1,59.2,29.95,SW,229,0.0,0.0,97,0.00,,,0.00,LWC V2.11 B50,2013-05-10 11:30:00,
2013-05-10 07:35:00,60.8,59.9,29.95,SW,229,0.0,0.0,97,0.00,,,0.00,LWC V2.11 B50,2013-05-10 11:35:00,
2013-05-10 07:40:00,61.5,60.6,29.95,SW,229,0.0,0.0,97,0.00,,,0.00,LWC V2.11 B50,2013-05-10 11:40:00,
2013-05-10 07:45:00,62.1,61.2,29.95,SW,229,0.0,0.0,97,0.00,,,0.00,LWC V2.11 B50,2013-05-10 11:45:00,
2013-05-10 07:50:00,62.7,61.8,29.96,SW,229,0.0,0.0,97,0.00,,,0.00,LWC V2.11 B50,2013-05-10 11:50:00,
2013-05-10 07:55:00,63.0,61.8,29.95,SW,229,0.0,0.0,96,0.00,,,0.00,LWC V2.11 B50,2013-05-10 11:55:00,
2013-05-10 08:00:00,63.4,62.2,29.95,SW,229,0.0,0.0,96,0.00,,,0.00,LWC V2.11 B50,2013-05-10 12:00:00,
2013-05-10 08:05:00,63.9,62.7,29.95,SW,229,0.0,0.0,96,0.00,,,0.00,LWC V2.11 B50,2013-05-10 12:05:00,
2013-05-10 08:10:00,63.8,61.7,29.95,SW,232,0.0,0.0,93,0.00,,,0.00,LWC V2.11 B50,2013-05-10 12:10:00,
2013-05-10 08:15:00,63.9,60.9,29.95,WNW,289,0.0,0.0,90,0.00,,,0.00,LWC V2.11 B50,2013-05-10 12:15:00,
2013-05-10 08:20:00,64.1,60.5,29.95,WNW,289,0.0,0.0,88,0.00,,,0.00,LWC V2.11 B50,2013-05-10 12:20:00,
2013-05-10 08:25:00,64.5,60.5,29.95,WNW,289,0.0,0.0,87,0.00,,,0.00,LWC V2.11 B50,2013-05-10 12:25:00,
2013-05-10 08:30:00,65.1,60.5,29.95,WNW,288,0.0,0.0,85,0.00,,,0.00,LWC V2.11 B50,2013-05-10 12:30:00,
2013-05-10 08:35:00,65.6,60.3,29.95,WNW,290,0.0,0.0,83,0.00,,,0.00,LWC V2.11 B50,2013-05-10 12:35:00,
2013-05-10 08:40:00,65.9,60.2,29.95,WNW,290,0.0,0.0,82,0.00,,,0.00,LWC V2.11 B50,2013-05-10 12:40:00,
2013-05-10 08:45:00,66.5,61.2,29.95,WNW,290,0.0,0.0,83,0.00,,,0.00,LWC V2.11 B50,2013-05-10 12:45:00,
2013-05-10 08:50:00,67.1,60.7,29.95,WNW,290,0.0,0.0,80,0.00,,,0.00,LWC V2.11 B50,2013-05-10 12:50:00,
2013-05-10 08:55:00,67.6,61.2,29.95,WNW,291,0.0,0.0,80,0.00,,,0.00,LWC V2.11 B50,2013-05-10 12:55:00,
2013-05-10 09:00:00,68.4,61.6,29.95,NE,37,0.0,0.0,79,0.00,,,0.00,LWC V2.11 B50,2013-05-10 13:00:00,
2013-05-10 09:05:00,69.2,61.7,29.95,NE,37,0.0,0.0,77,0.00,,,0.00,LWC V2.11 B50,2013-05-10 13:05:00,
2013-05-10 09:10:00,69.8,61.5,29.95,NE,37,0.0,0.0,75,0.00,,,0.00,LWC V2.11 B50,2013-05-10 13:10:00,
2013-05-10 09:15:00,70.4,62.1,29.95,NE,37,0.0,0.0,75,0.00,,,0.00,LWC V2.11 B50,2013-05-10 13:15:00,
2013-05-10 09:20:00,71.1,62.0,29.95,NE,37,0.0,0.0,73,0.00,,,0.00,LWC V2.11 B50,2013-05-10 13:20:00,
2013-05-10 09:25:00,71.7,62.2,29.95,NE,37,0.0,0.0,72,0.00,,,0.00,LWC V2.11 B50,2013-05-10 13:25:00,
2013-05-10 09:30:00,71.7,61.4,29.95,North,9,0.0,0.0,70,0.00,,,0.00,LWC V2.11 B50,2013-05-10 13:30:00,
2013-05-10 09:35:00,72.5,62.5,29.95,North,9,0.0,0.0,71,0.00,,,0.00,LWC V2.11 B50,2013-05-10 13:35:00,
2013-05-10 09:40:00,73.3,62.9,29.95,North,9,0.0,0.0,70,0.00,,,0.00,LWC V2.11 B50,2013-05-10 13:40:00,
2013-05-10 09:45:00,73.6,62.0,29.95,North,0,0.0,0.0,67,0.00,,,0.00,LWC V2.11 B50,2013-05-10 13:45:00,
2013-05-10 09:50:00,73.6,62.4,29.95,SW,226,0.0,0.0,68,0.00,,,0.00,LWC V2.11 B50,2013-05-10 13:50:00,
2013-05-10 09:55:00,73.2,62.0,29.95,SW,225,0.0,0.0,68,0.00,,,0.00,LWC V2.11 B50,2013-05-10 13:55:00,
2013-05-10 10:00:00,73.2,61.1,29.95,WSW,248,0.0,0.0,66,0.00,,,0.00,LWC V2.11 B50,2013-05-10 14:00:00,
2013-05-10 10:05:00,73.3,61.7,29.95,SW,229,0.0,0.0,67,0.00,,,0.00,LWC V2.11 B50,2013-05-10 14:05:00,
2013-05-10 10:10:00,73.3,62.1,29.95,SW,225,0.0,0.0,68,0.00,,,0.00,LWC V2.11 B50,2013-05-10 14:10:00,
2013-05-10 10:15:00,73.3,61.7,29.95,WNW,291,0.0,0.0,67,0.00,,,0.00,LWC V2.11 B50,2013-05-10 14:15:00,
2013-05-10 10:20:00,74.0,62.8,29.95,WNW,291,0.0,0.0,68,0.00,,,0.00,LWC V2.11 B50,2013-05-10 14:20:00,
2013-05-10 10:25:00,74.8,61.8,29.95,NNE,32,0.0,0.0,64,0.00,,,0.00,LWC V2.11 B50,2013-05-10 14:25:00,
2013-05-10 10:30:00,75.3,61.4,29.95,SSE,167,0.0,0.0,62,0.00,,,0.00,LWC V2.11 B50,2013-05-10 14:30:00,
2013-05-10 10:35:00,75.2,60.8,29.94,West,261,0.0,0.0,61,0.00,,,0.00,LWC V2.11 B50,2013-05-10 14:35:00,
2013-05-10 10:40:00,75.2,61.3,29.95,NW,304,0.0,2.0,62,0.00,,,0.00,LWC V2.11 B50,2013-05-10 14:40:00,
2013-05-10 10:45:00,75.4,61.5,29.94,NE,44,0.0,0.0,62,0.00,,,0.00,LWC V2.11 B50,2013-05-10 14:45:00,
2013-05-10 10:50:00,75.8,60.4,29.94,South,183,0.0,0.0,59,0.00,,,0.00,LWC V2.11 B50,2013-05-10 14:50:00,
2013-05-10 10:55:00,76.1,60.7,29.94,NW,310,1.0,2.0,59,0.00,,,0.00,LWC V2.11 B50,2013-05-10 14:55:00,
2013-05-10 11:01:00,75.6,60.7,29.94,WNW,290,0.0,0.0,60,0.00,,,0.00,LWC V2.11 B50,2013-05-10 15:01:00,
2013-05-10 11:06:00,75.5,61.5,29.94,SW,225,0.0,0.0,62,0.00,,,0.00,LWC V2.11 B50,2013-05-10 15:06:00,
2013-05-10 11:11:00,75.6,60.2,29.94,SSW,198,0.0,1.0,59,0.00,,,0.00,LWC V2.11 B50,2013-05-10 15:11:00,
2013-05-10 11:16:00,75.5,60.6,29.94,SSW,205,1.0,3.0,60,0.00,,,0.00,LWC V2.11 B50,2013-05-10 15:16:00,
2013-05-10 11:21:00,75.4,59.6,29.94,WNW,296,0.0,4.0,58,0.00,,,0.00,LWC V2.11 B50,2013-05-10 15:21:00,
2013-05-10 11:26:00,75.7,61.3,29.94,WNW,292,0.0,0.0,61,0.00,,,0.00,LWC V2.11 B50,2013-05-10 15:26:00,
2013-05-10 11:31:00,76.1,59.7,29.94,SW,216,0.0,0.0,57,0.00,,,0.00,LWC V2.11 B50,2013-05-10 15:31:00,
2013-05-10 11:36:00,76.0,60.1,29.94,SW,229,0.0,0.0,58,0.00,,,0.00,LWC V2.11 B50,2013-05-10 15:36:00,
2013-05-10 11:41:00,76.1,59.7,29.93,SW,229,0.0,0.0,57,0.00,,,0.00,LWC V2.11 B50,2013-05-10 15:41:00,
2013-05-10 11:46:00,76.2,59.3,29.93,SSW,209,0.0,0.0,56,0.00,,,0.00,LWC V2.11 B50,2013-05-10 15:46:00,
2013-05-10 11:51:00,76.3,59.4,29.93,SSW,206,0.0,6.0,56,0.00,,,0.00,LWC V2.11 B50,2013-05-10 15:51:00,
2013-05-10 11:56:00,76.2,59.8,29.93,SSW,198,0.0,4.0,57,0.00,,,0.00,LWC V2.11 B50,2013-05-10 15:56:00,
2013-05-10 12:01:00,76.3,61.4,29.93,SSW,202,0.0,2.0,60,0.00,,,0.00,LWC V2.11 B50,2013-05-10 16:01:00,
2013-05-10 12:06:00,76.4,60.5,29.93,SSW,198,0.0,0.0,58,0.00,,,0.00,LWC V2.11 B50,2013-05-10 16:06:00,
2013-05-10 12:11:00,76.2,59.3,29.93,SSW,196,0.0,0.0,56,0.00,,,0.00,LWC V2.11 B50,2013-05-10 16:11:00,
2013-05-10 12:16:00,76.6,58.7,29.93,SSW,207,0.0,0.0,54,0.00,,,0.00,LWC V2.11 B50,2013-05-10 16:16:00,
2013-05-10 12:21:00,76.7,59.3,29.93,SSW,196,0.0,4.0,55,0.00,,,0.00,LWC V2.11 B50,2013-05-10 16:21:00,
2013-05-10 12:26:00,76.1,59.2,29.93,SSW,201,0.0,6.0,56,0.00,,,0.00,LWC V2.11 B50,2013-05-10 16:26:00,
2013-05-10 12:31:00,76.0,59.2,29.93,West,268,0.0,1.0,56,0.00,,,0.00,LWC V2.11 B50,2013-05-10 16:31:00,
2013-05-10 12:36:00,76.3,58.4,29.93,WNW,297,3.0,7.0,54,0.00,,,0.00,LWC V2.11 B50,2013-05-10 16:36:00,
2013-05-10 12:41:00,76.7,59.8,29.93,SSW,195,3.0,3.0,56,0.00,,,0.00,LWC V2.11 B50,2013-05-10 16:41:00,
2013-05-10 12:46:00,77.3,60.9,29.92,SSW,203,2.0,12.0,57,0.00,,,0.00,LWC V2.11 B50,2013-05-10 16:46:00,
2013-05-10 12:51:00,77.3,58.3,29.92,SW,221,0.0,0.0,52,0.00,,,0.00,LWC V2.11 B50,2013-05-10 16:51:00,
2013-05-10 12:56:00,77.8,59.3,29.92,WSW,241,0.0,0.0,53,0.00,,,0.00,LWC V2.11 B50,2013-05-10 16:56:00,
2013-05-10 13:01:00,78.0,60.5,29.92,SSW,209,1.0,6.0,55,0.00,,,0.00,LWC V2.11 B50,2013-05-10 17:01:00,
2013-05-10 13:06:00,78.0,58.4,29.92,WNW,292,0.0,0.0,51,0.00,,,0.00,LWC V2.11 B50,2013-05-10 17:06:00,
2013-05-10 13:11:00,78.1,57.4,29.92,WNW,303,2.0,10.0,49,0.00,,,0.00,LWC V2.11 B50,2013-05-10 17:11:00,
2013-05-10 13:16:00,78.4,57.6,29.92,WNW,282,0.0,3.0,49,0.00,,,0.00,LWC V2.11 B50,2013-05-10 17:16:00,
2013-05-10 13:21:00,78.4,58.8,29.92,WNW,291,4.0,6.0,51,0.00,,,0.00,LWC V2.11 B50,2013-05-10 17:21:00,
2013-05-10 13:26:00,78.4,57.6,29.91,SSW,206,0.0,1.0,49,0.00,,,0.00,LWC V2.11 B50,2013-05-10 17:26:00,
2013-05-10 13:31:00,78.6,57.2,29.91,West,280,5.0,8.0,48,0.00,,,0.00,LWC V2.11 B50,2013-05-10 17:31:00,
2013-05-10 13:36:00,78.7,57.3,29.91,WNW,290,0.0,6.0,48,0.00,,,0.00,LWC V2.11 B50,2013-05-10 17:36:00,
2013-05-10 13:41:00,78.8,58.0,29.91,SSW,207,0.0,0.0,49,0.00,,,0.00,LWC V2.11 B50,2013-05-10 17:41:00,
2013-05-10 13:46:00,79.1,56.5,29.91,SW,234,0.0,2.0,46,0.00,,,0.00,LWC V2.11 B50,2013-05-10 17:46:00,
2013-05-10 13:51:00,79.1,56.5,29.90,SSW,203,0.0,0.0,46,0.00,,,0.00,LWC V2.11 B50,2013-05-10 17:51:00,
2013-05-10 13:56:00,79.3,55.5,29.90,WNW,294,0.0,0.0,44,0.00,,,0.00,LWC V2.11 B50,2013-05-10 17:56:00,
2013-05-10 14:01:00,79.5,58.6,29.90,SW,221,0.0,0.0,49,0.00,,,0.00,LWC V2.11 B50,2013-05-10 18:01:00,
2013-05-10 14:06:00,79.7,57.7,29.90,WNW,297,0.0,10.0,47,0.00,,,0.00,LWC V2.11 B50,2013-05-10 18:06:00,
2013-05-10 14:11:00,79.8,55.3,29.90,WNW,288,1.0,5.0,43,0.00,,,0.00,LWC V2.11 B50,2013-05-10 18:11:00,
2013-05-10 14:16:00,79.9,57.2,29.90,SSW,205,0.0,1.0,46,0.00,,,0.00,LWC V2.11 B50,2013-05-10 18:16:00,
2013-05-10 14:21:00,80.2,58.7,29.90,South,178,0.0,0.0,48,0.00,,,0.00,LWC V2.11 B50,2013-05-10 18:21:00,
2013-05-10 14:26:00,79.9,57.8,29.90,SSW,197,0.0,3.0,47,0.00,,,0.00,LWC V2.11 B50,2013-05-10 18:26:00,
2013-05-10 14:31:00,79.6,56.4,29.90,SW,234,0.0,0.0,45,0.00,,,0.00,LWC V2.11 B50,2013-05-10 18:31:00,
2013-05-10 14:36:00,79.7,58.2,29.90,SSW,198,0.0,0.0,48,0.00,,,0.00,LWC V2.11 B50,2013-05-10 18:36:00,
2013-05-10 14:41:00,80.0,59.1,29.89,SSW,204,0.0,5.0,49,0.00,,,0.00,LWC V2.11 B50,2013-05-10 18:41:00,
2013-05-10 14:46:00,79.9,59.0,29.89,SSW,202,1.0,7.0,49,0.00,,,0.00,LWC V2.11 B50,2013-05-10 18:46:00,
2013-05-10 14:51:00,80.1,58.6,29.89,SSW,209,0.0,0.0,48,0.00,,,0.00,LWC V2.11 B50,2013-05-10 18:51:00,
2013-05-10 14:56:00,80.3,57.6,29.89,SW,227,0.0,0.0,46,0.00,,,0.00,LWC V2.11 B50,2013-05-10 18:56:00,
2013-05-10 15:01:00,80.6,57.9,29.88,NW,305,0.0,0.0,46,0.00,,,0.00,LWC V2.11 B50,2013-05-10 19:01:00,
2013-05-10 15:06:00,80.8,58.7,29.88,West,265,0.0,0.0,47,0.00,,,0.00,LWC V2.11 B50,2013-05-10 19:06:00,
2013-05-10 15:11:00,80.7,59.7,29.88,SSW,205,0.0,3.0,49,0.00,,,0.00,LWC V2.11 B50,2013-05-10 19:11:00,
2013-05-10 15:16:00,80.5,57.2,29.88,SSW,206,0.0,0.0,45,0.00,,,0.00,LWC V2.11 B50,2013-05-10 19:16:00,
2013-05-10 15:21:00,80.4,58.3,29.88,SW,220,0.0,0.0,47,0.00,,,0.00,LWC V2.11 B50,2013-05-10 19:21:00,
2013-05-10 15:26:00,80.4,57.7,29.88,SW,219,0.0,0.0,46,0.00,,,0.00,LWC V2.11 B50,2013-05-10 19:26:00,
2013-05-10 15:31:00,80.5,56.6,29.88,SSW,202,0.0,0.0,44,0.00,,,0.00,LWC V2.11 B50,2013-05-10 19:31:00,
2013-05-10 15:36:00,80.4,56.5,29.88,SSW,205,0.0,6.0,44,0.00,,,0.00,LWC V2.11 B50,2013-05-10 19:36:00,
2013-05-10 15:41:00,80.2,57.5,29.88,West,279,0.0,4.0,46,0.00,,,0.00,LWC V2.11 B50,2013-05-10 19:41:00,
2013-05-10 15:46:00,80.4,57.1,29.88,SW,214,4.0,5.0,45,0.00,,,0.00,LWC V2.11 B50,2013-05-10 19:46:00,
2013-05-10 15:51:00,80.6,55.4,29.87,SW,220,0.0,0.0,42,0.00,,,0.00,LWC V2.11 B50,2013-05-10 19:51:00,
2013-05-10 15:53:00,80.7,56.1,29.87,SSW,205,0.0,4.0,43,0.00,,,0.00,LWC V2.11 B50,2013-05-10 19:53:00,
2013-05-10 15:58:00,81.0,56.4,29.87,SW,217,0.0,0.0,43,0.00,,,0.00,LWC V2.11 B50,2013-05-10 19:58:00,
2013-05-10 16:03:00,81.4,56.7,29.87,SSW,200,5.0,5.0,43,0.00,,,0.00,LWC V2.11 B50,2013-05-10 20:03:00,
2013-05-10 16:08:00,81.3,56.0,29.87,WNW,292,0.0,0.0,42,0.00,,,0.00,LWC V2.11 B50,2013-05-10 20:08:00,
2013-05-10 16:13:00,81.2,55.9,29.87,SSW,205,0.0,2.0,42,0.00,,,0.00,LWC V2.11 B50,2013-05-10 20:13:00,
2013-05-10 16:18:00,80.9,56.9,29.87,SW,230,0.0,3.0,44,0.00,,,0.00,LWC V2.11 B50,2013-05-10 20:18:00,
2013-05-10 16:23:00,80.9,56.9,29.86,West,276,1.0,5.0,44,0.00,,,0.00,LWC V2.11 B50,2013-05-10 20:23:00,
2013-05-10 16:28:00,81.1,56.5,29.86,WNW,286,0.0,0.0,43,0.00,,,0.00,LWC V2.11 B50,2013-05-10 20:28:00,
2013-05-10 16:33:00,81.6,56.9,29.86,SSW,196,0.0,0.0,43,0.00,,,0.00,LWC V2.11 B50,2013-05-10 20:33:00,
2013-05-10 16:38:00,81.5,57.5,29.86,SW,224,0.0,1.0,44,0.00,,,0.00,LWC V2.11 B50,2013-05-10 20:38:00,
2013-05-10 16:43:00,81.5,56.2,29.86,SW,222,0.0,2.0,42,0.00,,,0.00,LWC V2.11 B50,2013-05-10 20:43:00,
2013-05-10 16:48:00,81.3,57.9,29.86,SSW,211,0.0,6.0,45,0.00,,,0.00,LWC V2.11 B50,2013-05-10 20:48:00,
2013-05-10 16:53:00,80.9,57.5,29.86,SSW,211,0.0,0.0,45,0.00,,,0.00,LWC V2.11 B50,2013-05-10 20:53:00,
2013-05-10 16:58:00,80.8,58.1,29.86,SSE,159,0.0,0.0,46,0.00,,,0.00,LWC V2.11 B50,2013-05-10 20:58:00,
2013-05-10 17:03:00,80.6,57.3,29.86,SSW,210,7.0,12.0,45,0.00,,,0.00,LWC V2.11 B50,2013-05-10 21:03:00,
2013-05-10 17:08:00,80.2,57.5,29.86,SW,232,5.0,6.0,46,0.00,,,0.00,LWC V2.11 B50,2013-05-10 21:08:00,
2013-05-10 17:13:00,79.8,56.5,29.86,SSW,195,0.0,9.0,45,0.00,,,0.00,LWC V2.11 B50,2013-05-10 21:13:00,
2013-05-10 17:18:00,79.5,58.6,29.86,South,187,0.0,0.0,49,0.00,,,0.00,LWC V2.11 B50,2013-05-10 21:18:00,
2013-05-10 17:23:00,79.2,57.8,29.86,South,190,0.0,0.0,48,0.00,,,0.00,LWC V2.11 B50,2013-05-10 21:23:00,
2013-05-10 17:28:00,79.1,57.7,29.86,SSW,198,7.0,10.0,48,0.00,,,0.00,LWC V2.11 B50,2013-05-10 21:28:00,
2013-05-10 17:33:00,79.0,58.7,29.86,SSW,195,0.0,0.0,50,0.00,,,0.00,LWC V2.11 B50,2013-05-10 21:33:00,
2013-05-10 17:38:00,78.8,58.0,29.86,SSW,201,0.0,2.0,49,0.00,,,0.00,LWC V2.11 B50,2013-05-10 21:38:00,
2013-05-10 17:43:00,78.6,58.4,29.86,SSW,198,0.0,0.0,50,0.00,,,0.00,LWC V2.11 B50,2013-05-10 21:43:00,
2013-05-10 17:48:00,78.5,57.7,29.85,SSW,205,0.0,6.0,49,0.00,,,0.00,LWC V2.11 B50,2013-05-10 21:48:00,
2013-05-10 17:53:00,78.5,58.8,29.85,SSW,195,0.0,6.0,51,0.00,,,0.00,LWC V2.11 B50,2013-05-10 21:53:00,
2013-05-10 17:58:00,78.3,58.7,29.85,SSW,208,7.0,16.0,51,0.00,,,0.00,LWC V2.11 B50,2013-05-10 21:58:00,
2013-05-10 18:03:00,78.2,59.6,29.85,SW,221,0.0,0.0,53,0.00,,,0.00,LWC V2.11 B50,2013-05-10 22:03:00,
2013-05-10 18:08:00,78.0,59.5,29.85,SSW,203,0.0,0.0,53,0.00,,,0.00,LWC V2.11 B50,2013-05-10 22:08:00,
2013-05-10 18:13:00,77.8,59.3,29.85,SW,217,0.0,0.0,53,0.00,,,0.00,LWC V2.11 B50,2013-05-10 22:13:00,
2013-05-10 18:18:00,77.6,59.6,29.85,SSW,205,0.0,7.0,54,0.00,,,0.00,LWC V2.11 B50,2013-05-10 22:18:00,
2013-05-10 18:23:00,77.5,59.0,29.85,SSW,198,6.0,6.0,53,0.00,,,0.00,LWC V2.11 B50,2013-05-10 22:23:00,
2013-05-10 18:28:00,77.5,59.5,29.84,SSW,198,0.0,12.0,54,0.00,,,0.00,LWC V2.11 B50,2013-05-10 22:28:00,
2013-05-10 18:33:00,77.4,59.4,29.85,SSW,202,2.0,10.0,54,0.00,,,0.00,LWC V2.11 B50,2013-05-10 22:33:00,
2013-05-10 18:38:00,77.4,59.9,29.85,SSW,202,0.0,0.0,55,0.00,,,0.00,LWC V2.11 B50,2013-05-10 22:38:00,
2013-05-10 18:43:00,77.3,58.8,29.85,SSW,208,3.0,9.0,53,0.00,,,0.00,LWC V2.11 B50,2013-05-10 22:43:00,
2013-05-10 18:48:00,77.2,58.7,29.85,SW,215,0.0,4.0,53,0.00,,,0.00,LWC V2.11 B50,2013-05-10 22:48:00,
2013-05-10 18:53:00,77.2,58.2,29.85,SSW,209,0.0,5.0,52,0.00,,,0.00,LWC V2.11 B50,2013-05-10 22:53:00,
2013-05-10 18:58:00,77.1,59.2,29.84,SSW,205,0.0,0.0,54,0.00,,,0.00,LWC V2.11 B50,2013-05-10 22:58:00,
2013-05-10 19:03:00,77.0,59.1,29.84,SSW,196,0.0,0.0,54,0.00,,,0.00,LWC V2.11 B50,2013-05-10 23:03:00,
2013-05-10 19:08:00,76.8,58.9,29.84,South,182,6.0,6.0,54,0.00,,,0.00,LWC V2.11 B50,2013-05-10 23:08:00,
2013-05-10 19:13:00,76.6,59.2,29.85,SSW,196,0.0,0.0,55,0.00,,,0.00,LWC V2.11 B50,2013-05-10 23:13:00,
2013-05-10 19:18:00,76.4,59.0,29.84,SSW,205,0.0,0.0,55,0.00,,,0.00,LWC V2.11 B50,2013-05-10 23:18:00,
2013-05-10 19:23:00,76.2,58.8,29.85,SSW,197,0.0,6.0,55,0.00,,,0.00,LWC V2.11 B50,2013-05-10 23:23:00,
2013-05-10 19:28:00,76.0,58.6,29.85,SSW,202,0.0,4.0,55,0.00,,,0.00,LWC V2.11 B50,2013-05-10 23:28:00,
2013-05-10 19:29:00,76.0,59.2,29.84,SW,225,0.0,0.0,56,0.00,,,0.00,LWC V2.11 B50,2013-05-10 23:29:00,
2013-05-10 19:34:00,75.9,59.1,29.85,SSW,205,0.0,10.0,56,0.00,,,0.00,LWC V2.11 B50,2013-05-10 23:34:00,
2013-05-10 19:39:00,75.9,59.6,29.84,SSW,205,0.0,0.0,57,0.00,,,0.00,LWC V2.11 B50,2013-05-10 23:39:00,
2013-05-10 19:44:00,75.7,59.4,29.84,SSW,206,0.0,1.0,57,0.00,,,0.00,LWC V2.11 B50,2013-05-10 23:44:00,
2013-05-10 19:49:00,75.6,59.8,29.84,SSW,210,0.0,0.0,58,0.00,,,0.00,LWC V2.11 B50,2013-05-10 23:49:00,
2013-05-10 19:54:00,75.3,59.5,29.84,SSW,210,0.0,0.0,58,0.00,,,0.00,LWC V2.11 B50,2013-05-10 23:54:00,
2013-05-10 19:59:00,74.9,59.6,29.84,SSW,210,0.0,0.0,59,0.00,,,0.00,LWC V2.11 B50,2013-05-10 23:59:00,
2013-05-10 20:04:00,74.5,59.7,29.84,SSW,210,0.0,0.0,60,0.00,,,0.00,LWC V2.11 B50,2013-05-11 00:04:00,
2013-05-10 20:09:00,74.0,59.7,29.85,SSW,210,0.0,0.0,61,0.00,,,0.00,LWC V2.11 B50,2013-05-11 00:09:00,
2013-05-10 20:14:00,73.5,59.7,29.85,SSW,210,0.0,0.0,62,0.00,,,0.00,LWC V2.11 B50,2013-05-11 00:14:00,
2013-05-10 20:19:00,73.2,59.4,29.84,SSW,210,0.0,0.0,62,0.00,,,0.00,LWC V2.11 B50,2013-05-11 00:19:00,
2013-05-10 20:24:00,72.8,59.5,29.84,SSW,209,3.0,3.0,63,0.00,,,0.00,LWC V2.11 B50,2013-05-11 00:24:00,
2013-05-10 20:29:00,72.8,59.5,29.84,SSW,199,4.0,4.0,63,0.00,,,0.00,LWC V2.11 B50,2013-05-11 00:29:00,
2013-05-10 20:34:00,72.9,59.5,29.84,SSW,202,0.0,0.0,63,0.00,,,0.00,LWC V2.11 B50,2013-05-11 00:34:00,
2013-05-10 20:39:00,73.0,59.6,29.84,SSW,206,0.0,0.0,63,0.00,,,0.00,LWC V2.11 B50,2013-05-11 00:39:00,
2013-05-10 20:44:00,72.9,59.5,29.84,SSW,206,0.0,0.0,63,0.00,,,0.00,LWC V2.11 B50,2013-05-11 00:44:00,
2013-05-10 20:49:00,72.9,59.5,29.85,SSW,212,0.0,0.0,63,0.00,,,0.00,LWC V2.11 B50,2013-05-11 00:49:00,
2013-05-10 20:54:00,72.8,59.5,29.84,SSW,212,0.0,0.0,63,0.00,,,0.00,LWC V2.11 B50,2013-05-11 00:54:00,
2013-05-10 20:59:00,72.5,59.6,29.85,SSW,212,0.0,0.0,64,0.00,,,0.00,LWC V2.11 B50,2013-05-11 00:59:00,
2013-05-10 21:04:00,72.2,59.3,29.85,SSW,212,0.0,0.0,64,0.00,,,0.00,LWC V2.11 B50,2013-05-11 01:04:00,
2013-05-10 21:09:00,72.0,59.6,29.85,SSW,193,0.0,0.0,65,0.00,,,0.00,LWC V2.11 B50,2013-05-11 01:09:00,
2013-05-10 21:14:00,71.9,59.5,29.85,SSW,206,0.0,0.0,65,0.00,,,0.00,LWC V2.11 B50,2013-05-11 01:14:00,
2013-05-10 21:19:00,71.9,59.5,29.85,SSW,205,2.0,4.0,65,0.00,,,0.00,LWC V2.11 B50,2013-05-11 01:19:00,
2013-05-10 21:24:00,72.2,59.3,29.85,SSW,202,0.0,0.0,64,0.00,,,0.00,LWC V2.11 B50,2013-05-11 01:24:00,
2013-05-10 21:29:00,72.2,59.3,29.85,SW,216,0.0,0.0,64,0.00,,,0.00,LWC V2.11 B50,2013-05-11 01:29:00,
2013-05-10 21:34:00,72.1,59.7,29.84,SW,215,0.0,0.0,65,0.00,,,0.00,LWC V2.11 B50,2013-05-11 01:34:00,
2013-05-10 21:39:00,71.8,59.4,29.85,SW,215,0.0,0.0,65,0.00,,,0.00,LWC V2.11 B50,2013-05-11 01:39:00,
2013-05-10 21:44:00,71.5,59.5,29.84,SSW,210,0.0,0.0,66,0.00,,,0.00,LWC V2.11 B50,2013-05-11 01:44:00,
2013-05-10 21:49:00,71.2,59.7,29.84,SSW,210,0.0,0.0,67,0.00,,,0.00,LWC V2.11 B50,2013-05-11 01:49:00,
2013-05-10 21:54:00,71.1,59.6,29.84,SSW,199,0.0,0.0,67,0.00,,,0.00,LWC V2.11 B50,2013-05-11 01:54:00,
2013-05-10 21:59:00,71.0,59.5,29.84,SSW,195,0.0,0.0,67,0.00,,,0.00,LWC V2.11 B50,2013-05-11 01:59:00,
2013-05-10 22:04:00,71.0,59.5,29.84,SW,217,0.0,0.0,67,0.00,,,0.00,LWC V2.11 B50,2013-05-11 02:04:00,
2013-05-10 22:09:00,71.0,59.5,29.84,SSW,212,0.0,0.0,67,0.00,,,0.00,LWC V2.11 B50,2013-05-11 02:09:00,
2013-05-10 22:14:00,71.2,59.7,29.87,West,276,9.0,9.0,67,0.00,,,0.00,LWC V2.11 B50,2013-05-11 02:14:00,
2013-05-10 22:19:00,71.6,60.5,29.88,WNW,294,5.0,11.0,68,0.00,,,0.00,LWC V2.11 B50,2013-05-11 02:19:00,
2013-05-10 22:24:00,71.3,61.0,29.88,WNW,286,2.0,18.0,70,0.00,,,0.00,LWC V2.11 B50,2013-05-11 02:24:00,
2013-05-10 22:29:00,70.1,61.0,29.88,NW,317,5.0,15.0,73,0.00,,,0.00,LWC V2.11 B50,2013-05-11 02:29:00,
2013-05-10 22:34:00,68.9,61.4,29.89,WNW,283,3.0,14.0,77,0.00,,,0.00,LWC V2.11 B50,2013-05-11 02:34:00,
2013-05-10 22:39:00,67.7,61.7,29.89,WNW,292,0.0,8.0,81,0.51,,,0.02,LWC V2.11 B50,2013-05-11 02:39:00,
2013-05-10 22:44:00,66.5,61.2,29.89,NW,311,0.0,1.0,83,0.28,,,0.03,LWC V2.11 B50,2013-05-11 02:44:00,
2013-05-10 22:49:00,65.7,61.4,29.88,WNW,292,0.0,0.0,86,0.16,,,0.05,LWC V2.11 B50,2013-05-11 02:49:00,
2013-05-10 22:54:00,65.1,61.1,29.87,WNW,287,0.0,0.0,87,0.19,,,0.06,LWC V2.11 B50,2013-05-11 02:54:00,
2013-05-10 22:59:00,64.9,61.3,29.87,NW,311,0.0,0.0,88,0.12,,,0.07,LWC V2.11 B50,2013-05-11 02:59:00,
2013-05-10 23:04:00,64.5,61.2,29.87,NW,311,0.0,0.0,89,0.13,,,0.09,LWC V2.11 B50,2013-05-11 03:04:00,
2013-05-10 23:09:00,64.3,61.3,29.87,NW,311,0.0,0.0,90,0.28,,,0.11,LWC V2.11 B50,2013-05-11 03:09:00,
2013-05-10 23:14:00,64.1,61.4,29.86,NW,304,0.0,0.0,91,0.15,,,0.12,LWC V2.11 B50,2013-05-11 03:14:00,
2013-05-10 23:19:00,63.9,61.2,29.86,WNW,288,0.0,0.0,91,0.57,,,0.14,LWC V2.11 B50,2013-05-11 03:19:00,
2013-05-10 23:24:00,63.7,61.3,29.86,WNW,287,0.0,0.0,92,0.34,,,0.19,LWC V2.11 B50,2013-05-11 03:24:00,
2013-05-10 23:29:00,63.5,61.1,29.87,WNW,288,2.0,5.0,92,0.11,,,0.19,LWC V2.11 B50,2013-05-11 03:29:00,
2013-05-10 23:34:00,63.5,61.1,29.88,SW,225,3.0,9.0,92,0.09,,,0.20,LWC V2.11 B50,2013-05-11 03:34:00,
2013-05-10 23:39:00,63.2,61.1,29.87,West,277,8.0,8.0,93,0.11,,,0.21,LWC V2.11 B50,2013-05-11 03:39:00,
2013-05-10 23:44:00,63.1,61.0,29.86,WNW,299,0.0,10.0,93,0.08,,,0.22,LWC V2.11 B50,2013-05-11 03:44:00,
2013-05-10 23:49:00,63.1,61.0,29.86,NW,306,0.0,0.0,93,0.13,,,0.23,LWC V2.11 B50,2013-05-11 03:49:00,
2013-05-10 23:54:00,63.0,60.9,29.86,WNW,293,0.0,0.0,93,0.18,,,0.24,LWC V2.11 B50,2013-05-11 03:54:00,
2013-05-10 23:59:00,63.0,60.9,29.88,West,271,0.0,6.0,93,0.57,,,0.28,LWC V2.11 B50,2013-05-11 03:59:00,